Location: Quaker Farms
(41.4276°N, 73.1557°W)
Time: 10:35:38
(UTC+00:00)

Altair - All Passes

Search period start: 15 June 2021 00:00
Search period end: 25 June 2021 00:00
Orbit: 1501 x 1683 km, 47.2° (Epoch: 14 June)

Date Brightness Start Highest point End Pass type
(mag) Time Alt. Az. Time Alt. Az. Time Alt. Az.
15 Jun - 01:58:16 10° WNW 02:07:55 54° SW 02:17:40 10° SSE visible
15 Jun - 04:06:07 10° W 04:11:04 15° WSW 04:16:02 10° SSW visible
15 Jun - 17:15:17 10° S 17:22:59 30° SE 17:30:53 10° ENE daylight
15 Jun - 19:17:14 10° SW 19:26:43 81° SSE 19:36:38 10° ENE daylight
15 Jun - 21:22:26 10° W 21:32:03 64° N 21:42:03 10° ENE daylight
15 Jun - 23:27:59 10° WNW 23:37:55 74° NNE 23:48:05 10° ESE daylight
16 Jun - 01:33:01 10° WNW 01:42:45 58° SW 01:52:36 10° SE visible
16 Jun - 03:40:17 10° W 03:46:01 17° WSW 03:51:47 10° SSW visible
16 Jun - 16:50:34 10° S 16:57:56 27° SE 17:05:29 10° ENE daylight
16 Jun - 18:52:07 10° SW 19:01:32 77° SSE 19:11:23 10° ENE daylight
16 Jun - 20:57:11 10° W 21:06:47 65° N 21:16:45 10° ENE daylight
16 Jun - 23:02:46 10° WNW 23:12:39 71° NNE 23:22:47 10° E daylight
17 Jun - 01:07:47 10° WNW 01:17:34 62° SW 01:27:31 10° SE visible
17 Jun - 03:14:36 10° W 03:20:58 19° SW 03:27:23 10° SSW visible
17 Jun - 16:25:54 10° S 16:32:53 24° SE 16:40:02 10° ENE daylight
17 Jun - 18:27:01 10° SW 18:36:22 73° SSE 18:46:09 10° ENE daylight
17 Jun - 20:31:56 10° W 20:41:30 66° N 20:51:27 10° ENE daylight
17 Jun - 22:37:32 10° WNW 22:47:21 70° NNE 22:57:29 10° E daylight
18 Jun - 00:42:34 10° WNW 00:52:24 66° SW 01:02:24 10° SE visible
18 Jun - 02:49:00 10° W 02:55:54 21° SW 03:02:51 10° S visible
18 Jun - 16:01:19 10° S 16:07:50 22° SE 16:14:31 10° E daylight
18 Jun - 18:01:56 10° SW 18:11:13 69° SE 18:20:54 10° ENE daylight
18 Jun - 20:06:42 10° W 20:16:14 67° NNW 20:26:11 10° ENE daylight
18 Jun - 22:12:19 10° WNW 22:22:05 68° NNE 22:32:10 10° E daylight
19 Jun - 00:17:21 10° WNW 00:27:13 70° SW 00:37:17 10° SE daylight
19 Jun - 02:23:29 10° W 02:30:50 24° SW 02:38:14 10° S visible
19 Jun - 15:36:48 10° SSE 15:42:49 19° SE 15:48:57 10° E daylight
19 Jun - 17:36:53 10° SW 17:46:04 65° SE 17:55:39 10° ENE daylight
19 Jun - 19:41:27 10° W 19:50:58 69° NNW 20:00:54 10° ENE daylight
19 Jun - 21:47:06 10° WNW 21:56:48 66° N 22:06:51 10° E daylight
19 Jun - 23:52:09 10° WNW 00:02:01 74° SSW 00:12:07 10° SE daylight
20 Jun - 01:58:03 10° WNW 02:05:45 26° SW 02:13:33 10° S visible
20 Jun - 15:12:23 10° SSE 15:17:48 17° SE 15:23:18 10° E daylight
20 Jun - 17:11:51 10° SW 17:20:56 60° SE 17:30:24 10° ENE daylight
20 Jun - 19:16:14 10° W 19:25:43 71° NNW 19:35:37 10° ENE daylight
20 Jun - 21:21:52 10° WNW 21:31:31 65° N 21:41:31 10° E daylight
20 Jun - 23:26:56 10° WNW 23:36:49 78° SSW 23:46:57 10° SE daylight
21 Jun - 01:32:38 10° WNW 01:40:40 29° SW 01:48:49 10° S visible
21 Jun - 14:48:07 10° SSE 14:52:47 15° ESE 14:57:31 10° E daylight
21 Jun - 16:46:50 10° SW 16:55:49 56° SE 17:05:08 10° ENE daylight
21 Jun - 18:51:01 10° WSW 19:00:28 73° NNW 19:10:21 10° ENE daylight
21 Jun - 20:56:38 10° WNW 21:06:15 64° N 21:16:12 10° E daylight
21 Jun - 23:01:45 10° WNW 23:11:37 82° SSW 23:21:46 10° SE daylight
22 Jun - 01:07:16 10° WNW 01:15:34 31° SW 01:24:01 10° S visible
22 Jun - 14:24:04 10° SE 14:27:47 13° ESE 14:31:32 10° E daylight
22 Jun - 16:21:50 10° SSW 16:30:42 52° SE 16:39:52 10° ENE daylight
22 Jun - 18:25:48 10° WSW 18:35:14 75° NNW 18:45:04 10° ENE daylight
22 Jun - 20:31:24 10° WNW 20:40:58 63° N 20:50:53 10° E daylight
22 Jun - 22:36:33 10° WNW 22:46:24 86° SSW 22:56:33 10° ESE daylight
23 Jun - 00:41:55 10° WNW 00:50:28 34° SW 00:59:11 10° SSE daylight
23 Jun - 14:00:32 10° SE 14:02:48 11° ESE 14:05:03 10° ESE daylight
23 Jun - 15:56:52 10° SSW 16:05:35 48° SE 16:14:36 10° ENE daylight
23 Jun - 18:00:36 10° WSW 18:10:00 78° NNW 18:19:49 10° ENE daylight
23 Jun - 20:06:11 10° WNW 20:15:41 63° N 20:25:33 10° E daylight
23 Jun - 22:11:21 10° WNW 22:21:11 89° SSW 22:31:19 10° ESE daylight
24 Jun - 00:16:36 10° WNW 00:25:21 37° SW 00:34:18 10° SSE daylight
24 Jun - 15:31:56 10° SSW 15:40:30 44° SE 15:49:19 10° ENE daylight
24 Jun - 17:35:24 10° WSW 17:44:47 81° NNW 17:54:34 10° ENE daylight
24 Jun - 19:40:57 10° W 19:50:24 62° N 20:00:14 10° E daylight
24 Jun - 21:46:11 10° WNW 21:55:58 87° NNE 22:06:05 10° ESE daylight
